Flag for South Korea Weather past 2 weeks in Incheon, South Korea

Now
59 °F

Passing clouds.


Feels Like: 58 °F
Forecast: 49 / 67 °F
Wind: 7 mph from South

Location: Incheon International Airport

Current Time: Oct 26, 2014 at 12:38:40 AM

Latest Report: Oct 26, 2014 at 12:00 AM


Visibility: N/A

Pressure: 30.09 "Hg

Humidity: 88%

Dew point: 55 °F

Location of IncheonLocation

Historic Weather in Incheon — Graph

°F

Incheon temperature yesterday

Maximum temperature yesterday: 68 °F (at 3:30 PM)
Minimum temperature yesterday: 57 °F (at 2:30 AM)
Average temperature yesterday: 61 °F

Past Weeks' High & Low Weather Summary

 TemperatureHumidityPressure
High81 °F (Oct 12, 3:30 PM)94% (Oct 19, 3:30 AM)30.27 "Hg (Oct 19, 3:30 AM)
Low46 °F (Oct 17, 5:00 AM)19% (Oct 16, 1:00 PM)29.86 "Hg (Oct 13, 4:30 AM)
Average60 °F65%30.10 "Hg
* Reported Oct 10 11:00 PM — Oct 25 11:30 PM, Incheon, Weather by CustomWeather, © 2014

Note: Actual official high and low records may vary slightly from our data, if they occured in-between our weather recording intervals... More about our weather records

Advertising

Incheon weather history for previous 24 hours

 ConditionsComfort  
Time TempWeatherWind HumidityBarometerVisibility
11:30 PM
Oct 25
61 °FPassing clouds.6 mph83%30.09 "HgN/A
11:00 PM61 °FPassing clouds.8 mph83%30.12 "HgN/A
10:30 PM61 °FPassing clouds.7 mph83%30.12 "HgN/A
10:00 PM63 °FPassing clouds.6 mph77%30.12 "HgN/A
9:30 PM63 °FPassing clouds.7 mph77%30.12 "HgN/A
9:00 PM63 °FPassing clouds.7 mph77%30.12 "HgN/A
8:30 PM61 °FPassing clouds.5 mph77%30.12 "HgN/A
8:00 PM61 °FPassing clouds.3 mph83%30.12 "HgN/A
7:30 PM63 °FPassing clouds.5 mph77%30.12 "HgN/A
7:00 PM63 °FPassing clouds.7 mph77%30.12 "HgN/A
6:30 PM63 °FScattered clouds.6 mph77%30.09 "HgN/A
6:00 PM64 °FScattered clouds.7 mph73%30.09 "HgN/A
5:30 PM64 °FScattered clouds.7 mph73%30.09 "HgN/A
5:00 PM64 °FScattered clouds.9 mph73%30.09 "HgN/A
4:30 PM64 °FPassing clouds.13 mph73%30.09 "HgN/A
4:00 PM66 °FPassing clouds.13 mph68%30.09 "HgN/A
3:30 PM68 °FScattered clouds.9 mph64%30.09 "HgN/A
3:00 PM66 °FScattered clouds.9 mph68%30.09 "HgN/A
2:30 PM66 °FScattered clouds.9 mph68%30.09 "Hg4 mi
2:00 PM66 °FScattered clouds.8 mph68%30.09 "Hg4 mi
1:30 PM64 °FScattered clouds.8 mph73%30.09 "Hg4 mi
1:00 PM64 °FBroken clouds.8 mph73%30.12 "Hg4 mi
12:30 PM64 °FPartly sunny.9 mph73%30.12 "Hg4 mi
12:00 PM63 °FPartly sunny.9 mph77%30.15 "Hg4 mi
11:30 AM63 °FFog.10 mph77%30.15 "Hg2 mi
11:00 AM61 °FFog.13 mph83%30.15 "Hg2 mi
10:30 AM61 °FFog.12 mph83%30.15 "Hg2 mi
10:00 AM59 °FFog.13 mph88%30.15 "Hg2 mi
9:30 AM59 °FFog.14 mph88%30.15 "Hg1 mi
9:00 AM59 °FFog.13 mph88%30.15 "Hg1 mi
8:30 AM59 °FFog.12 mph88%30.15 "Hg1 mi
8:00 AM57 °FFog.12 mph94%30.12 "Hg1 mi
7:30 AM57 °FFog.12 mph88%30.12 "Hg1 mi
7:00 AM57 °FFog.10 mph88%30.12 "Hg2 mi
6:30 AM57 °FFog.9 mph94%30.12 "Hg2 mi
6:00 AM59 °FFog.10 mph88%30.09 "Hg2 mi
5:30 AM59 °FFog.8 mph88%30.12 "Hg1 mi
5:00 AM59 °FFog.8 mph88%30.12 "Hg2 mi
4:30 AM59 °FFog.9 mph88%30.09 "Hg2 mi
4:00 AM57 °FSnow. Fog.10 mph94%30.09 "Hg2 mi
3:30 AM57 °FFog.9 mph94%30.09 "Hg2 mi
3:00 AM57 °FFog.10 mph94%30.12 "Hg2 mi
2:30 AM57 °FFog.8 mph94%30.12 "Hg2 mi
2:00 AM59 °FFog.9 mph88%30.12 "Hg2 mi
1:30 AM61 °FPassing clouds.10 mph83%30.12 "Hg6 mi
1:00 AM59 °FPassing clouds.10 mph88%30.12 "Hg6 mi
12:30 AM61 °FPassing clouds.9 mph83%30.12 "Hg6 mi
12:00 AM61 °FPassing clouds.9 mph83%30.12 "HgN/A
Weather by CustomWeather, © 2014

See weather overviewHow to use our weather pages